{"data":{"norad_id":58259,"intl_designator":"2023-174D","name":"LEMUR-2-BASS","alt_names":[],"object_type":"PAYLOAD","status":"ACTIVE","operator":null,"country":"US","launch_date":"2023-11-11","launch_site_code":"AFWTR","launch_vehicle":null,"mission":null,"orbit_class":"UNKNOWN","rcs_meters":null,"size_class":null,"mass_kg":null,"dimensions":null,"purposes":["earth_obs"],"wikipedia_slug":null,"has_3d_model":false,"image_url":null,"decayed_at":null,"tle_current":{"epoch":"2026-05-25T04:24:10.039392Z","epoch_age_seconds":58915,"freshness":"FRESH","line1":"1 58259U 23174D   26145.18344953  .00016907  00000+0  39504-3 0  9997","line2":"2 58259  97.3846 229.5895 0005909 242.8442 117.2203 15.42231317141817","mean_motion":15.42231317,"eccentricity":0.0005909,"inclination_deg":97.3846,"raan_deg":229.5895,"arg_perigee_deg":242.8442,"mean_anomaly_deg":117.2203,"bstar":0.00039504,"rev_number":14181,"period_min":93.371207297303,"perigee_km":435.49691058872,"apogee_km":443.55402409263,"semimajor_km":6817.6624673407,"source":"CELESTRAK","updated_at":"2026-05-25T13:38:13.533107Z"}}}